Bremerton, WA

10:47 PM PDT on October 22, 2019 (GMT -0700)
Bremerton National

Weather History for KPWT - August, 2019

Change the Weather History Date:

Thursday, August 22, 2019

  Actual Average Record
Temperature  
Mean Temperature 62 °F -  
Max Temperature 71 °F 72 °F 88 °F (2018)
Min Temperature 54 °F 50 °F 46 °F (2002)
Degree Days  
Heating Degree Days 4    
Growing Degree Days 12 (Base 50)    
Moisture  
Dew Point 55 °F    
Average Humidity 87    
Maximum Humidity 100    
Minimum Humidity 60    
Precipitation  
Precipitation 0.00 in - - ()
Sea Level Pressure  
Sea Level Pressure 30.09 in    
Wind  
Wind Speed 2 mph ()    
Max Wind Speed 6 mph    
Max Gust Speed -    
Visibility 7.0 miles    
Events Fog , Rain    
Averages and records for this station are not official NWS values.
T = Trace of Precipitation, MM = Missing Value Source: Averaged Metar Reports

Daily Weather History Graph

Daily Weather History Graph

Search for Another Location

Airport or City:

Astronomy

Aug. 22, 2019 Rise Set
Actual Time 6:16 AM PDT 8:10 PM PDT
Civil Twilight 5:43 AM PDT 8:43 PM PDT
Nautical Twilight 5:02 AM PDT 9:23 PM PDT
Astronomical Twilight 4:17 AM PDT 10:08 PM PDT
Moon 11:34 PM PDT (8/22) 1:25 PM PDT (8/22)
Length of Visible Light 15h 00m
Length of Day
13h 54m
Waning Gibbous, 58% of the Moon is Illuminated
Aug 22
Waning Gibbous
Aug 23
Last Quarter
Aug 30
New
Sep 5
First Quarter
Sep 13
Full

Hourly Weather History & Observations

Time (PDT) Temp. Dew Point Humidity Pressure Visibility Wind Dir Wind Speed Gust Speed Precip Events Conditions
12:04 AM 59.0 °F 59.0 °F 100% 30.01 in 4.0 mi Calm Calm - 0.01 in Rain Light Rain
1:09 AM 57.2 °F 55.4 °F 94% 30.02 in 10.0 mi East 3.5 mph - N/A   Overcast
1:33 AM 57.2 °F 55.4 °F 94% 30.02 in 10.0 mi NE 3.5 mph - N/A   Overcast
1:56 AM 57.0 °F 55.0 °F 93% - 10.0 mi Calm Calm - N/A   Overcast
2:56 AM 57.0 °F 55.9 °F 96% 30.08 in 9.0 mi Calm Calm - N/A   Overcast
3:16 AM 57.2 °F 55.4 °F 94% 30.03 in 9.0 mi Calm Calm - N/A   Overcast
3:46 AM 57.2 °F 55.4 °F 94% 30.04 in 7.0 mi Calm Calm - N/A   Overcast
3:56 AM 57.0 °F 55.9 °F 96% 30.09 in 2.0 mi SSW 4.6 mph - N/A   Overcast
4:10 AM 55.4 °F 55.4 °F 100% 30.04 in 0.8 mi SSW 3.5 mph - N/A   Overcast
4:56 AM 55.9 °F 55.0 °F 97% 30.10 in 0.8 mi SSW 4.6 mph - N/A   Overcast
5:04 AM 55.4 °F 55.4 °F 100% 30.06 in 0.5 mi SSW 5.8 mph - N/A Fog Fog
5:33 AM 55.4 °F 55.4 °F 100% 30.06 in 0.8 mi SSW 4.6 mph - N/A   Overcast
5:45 AM 55.4 °F 55.4 °F 100% 30.06 in 0.5 mi SSW 4.6 mph - N/A Fog Fog
5:56 AM 55.0 °F 54.0 °F 96% 30.11 in 0.8 mi South 3.5 mph - N/A   Overcast
6:00 AM 55.4 °F 53.6 °F 94% 30.06 in 1.2 mi South 3.5 mph - N/A   Overcast
6:08 AM 55.4 °F 53.6 °F 94% 30.07 in 2.5 mi SSW 3.5 mph - N/A   Overcast
6:14 AM 55.4 °F 53.6 °F 94% 30.07 in 1.0 mi SSW 5.8 mph - N/A   Overcast
6:22 AM 55.4 °F 53.6 °F 94% 30.07 in 2.0 mi SSW 5.8 mph - N/A   Overcast
6:29 AM 55.4 °F 53.6 °F 94% 30.07 in 10.0 mi SSW 5.8 mph - N/A   Overcast
6:56 AM 55.0 °F 54.0 °F 96% 30.13 in 3.0 mi SSW 4.6 mph - N/A   Overcast
7:02 AM 55.4 °F 53.6 °F 94% 30.08 in 1.8 mi SSW 3.5 mph - N/A   Overcast
7:14 AM 55.4 °F 53.6 °F 94% 30.08 in 0.8 mi SSW 3.5 mph - N/A   Overcast
7:23 AM 55.4 °F 55.4 °F 100% 30.08 in 1.2 mi SSW 3.5 mph - N/A   Overcast
7:38 AM 55.4 °F 53.6 °F 94% 30.09 in 3.0 mi SW 4.6 mph - N/A   Overcast
7:56 AM 55.0 °F 55.0 °F 100% 30.14 in 9.0 mi SSW 3.5 mph - N/A   Overcast
8:56 AM 55.9 °F 55.0 °F 97% 30.14 in 9.0 mi SW 5.8 mph - N/A   Overcast
9:40 AM 57.2 °F 55.4 °F 94% 30.10 in 10.0 mi WSW 4.6 mph - N/A   Overcast
9:56 AM 57.9 °F 55.9 °F 93% 30.16 in 10.0 mi Calm Calm - N/A   Overcast
10:17 AM 62.6 °F 57.2 °F 82% 30.11 in 10.0 mi Calm Calm - N/A   Overcast
10:46 AM 60.8 °F 55.4 °F 82% 30.11 in 10.0 mi Variable 3.5 mph - N/A   Overcast
10:56 AM 63.0 °F 55.9 °F 78% 30.16 in 10.0 mi Calm Calm - N/A   Overcast
11:36 AM 62.6 °F 55.4 °F 77% 30.12 in 10.0 mi ESE 4.6 mph - N/A   Overcast
11:56 AM 64.0 °F 55.9 °F 75% 30.17 in 10.0 mi Calm Calm - N/A   Overcast
12:44 PM 64.4 °F 55.4 °F 73% 30.11 in 10.0 mi Calm Calm - N/A   Overcast
12:56 PM 66.0 °F 55.9 °F 70% 30.16 in 10.0 mi Variable 5.8 mph - N/A   Overcast
1:04 PM 64.4 °F 55.4 °F 73% 30.11 in 10.0 mi South 4.6 mph - N/A   Overcast
1:11 PM 64.4 °F 55.4 °F 73% 30.11 in 10.0 mi Calm Calm - N/A   Mostly Cloudy
1:42 PM 66.2 °F 55.4 °F 68% 30.11 in 10.0 mi ESE 5.8 mph - N/A   Mostly Cloudy
1:56 PM 66.0 °F 54.0 °F 65% 30.15 in 10.0 mi WSW 3.5 mph - N/A   Overcast
2:45 PM 66.2 °F 55.4 °F 68% 30.10 in 10.0 mi Calm Calm - N/A   Overcast
2:56 PM 66.9 °F 55.0 °F 66% 30.14 in 10.0 mi Calm Calm - N/A   Overcast
3:12 PM 68.0 °F 53.6 °F 60% 30.08 in 10.0 mi Calm Calm - N/A   Overcast
3:56 PM 66.9 °F 55.9 °F 68% 30.13 in 10.0 mi ESE 3.5 mph - N/A   Clear
4:56 PM 66.9 °F 57.0 °F 70% 30.12 in 10.0 mi Calm Calm - N/A   Clear
5:56 PM 69.1 °F 55.9 °F 63% 30.11 in 10.0 mi SE 5.8 mph - N/A   Partly Cloudy
7:56 PM 66.0 °F 55.9 °F 70% 30.10 in 10.0 mi West 3.5 mph - N/A   Clear
8:56 PM 59.0 °F 55.9 °F 90% 30.11 in 9.0 mi Calm Calm - N/A   Clear
9:56 PM 57.0 °F 55.0 °F 93% 30.10 in 10.0 mi SE 3.5 mph - N/A   Clear
10:56 PM 54.0 °F 52.0 °F 93% 30.09 in 10.0 mi Calm Calm - N/A   Clear
11:56 PM 54.0 °F 52.0 °F 93% 30.09 in 10.0 mi Calm Calm - N/A   Clear